EW1857 Weather Reports


time (UTC)temp
C
wind
direction
speed
KPH
gust
KPH
rain 1hr
cm
rain 24hr
cm
rain mn
cm
humidity
%
barometer
mb
20260905183021 19 0.0 0.0 0.00 0.00 0.00 47 1015.5
20260905181918 19 0.0 0.0 0.00 0.00 0.00 48 1015.5
20260905181425 20 0.0 0.0 0.00 0.00 0.00 47 1015.5
20260905180926 19 0.0 0.0 0.00 0.00 0.00 47 1015.4
20260905175919 19 0.0 0.0 0.00 0.00 0.00 47 1015.4
20260905174918 19 0.0 0.0 0.00 0.00 0.00 48 1015.1
20260905173921 19 0.0 0.0 0.00 0.00 0.00 49 1015.1
20260905173423 19 0.0 0.0 0.00 0.00 0.00 49 1015.1
20260905172923 20 0.0 0.0 0.00 0.00 0.00 49 1015.0
20260905172425 20 0.0 0.0 0.00 0.00 0.00 48 1015.0
20260905171319 20 0.0 0.0 0.00 0.00 0.00 48 1014.8
20260905170018 20 0.0 0.0 0.00 0.00 0.00 49 1014.8
20260905165026 20 0.0 0.0 0.00 0.00 0.00 49 1014.6
20260905164022 20 0.0 0.0 0.00 0.00 0.00 50 1014.6
20260905163118 21 0.0 0.0 0.00 0.00 0.00 50 1014.5
20260905162019 21 0.0 0.0 0.00 0.00 0.00 50 1014.5
20260905161521 21 0.0 0.0 0.00 0.00 0.00 49 1014.5
20260905160320 21 0.0 0.0 0.00 0.00 0.00 50 1014.5
20260905155022 21 0.0 0.0 0.00 0.00 0.00 49 1014.6
20260905154522 21 0.0 0.0 0.00 0.00 0.00 49 1014.6
20260905154026 21 0.0 0.0 0.00 0.00 0.00 49 1014.6
20260905153525 21 0.0 0.0 0.00 0.00 0.00 49 1014.6
20260905152522 21 0.0 0.0 0.00 0.00 0.00 49 1014.6
20260905152025 21 0.0 0.0 0.00 0.00 0.00 48 1014.6
20260905151526 21 0.0 0.0 0.00 0.00 0.00 49 1014.6
20260905151026 21 0.0 0.0 0.00 0.00 0.00 48 1014.5
20260905145920 21 0.0 0.0 0.00 0.00 0.00 48 1014.5
20260905145422 21 0.0 0.0 0.00 0.00 0.00 49 1014.5
20260905144921 21 0.0 0.0 0.00 0.00 0.00 48 1014.5
20260905144218 21 0.0 0.0 0.00 0.00 0.00 48 1014.6
20260905143217 21 0.0 0.0 0.00 0.00 0.00 48 1014.6
20260905142725 21 0.0 0.0 0.00 0.00 0.00 48 1014.6
20260905142224 21 0.0 0.0 0.00 0.00 0.00 48 1014.6
20260905141724 21 0.0 0.0 0.00 0.00 0.00 48 1014.6
20260905140717 21 0.0 0.0 0.00 0.00 0.00 48 1014.9
20260905140226 21 0.0 0.0 0.00 0.00 0.00 48 1014.9
20260905134921 22 0.0 0.0 0.00 0.00 0.00 48 1014.9
20260905134426 22 0.0 0.0 0.00 0.00 0.00 49 1014.9
20260905133420 22 0.0 0.0 0.00 0.00 0.00 48 1014.8
20260905132921 22 0.0 0.0 0.00 0.00 0.00 49 1014.7
20260905131822 22 0.0 0.0 0.00 0.00 0.00 48 1014.7
20260905130725 22 0.0 0.0 0.00 0.00 0.00 49 1014.7
20260905125722 22 0.0 0.0 0.00 0.00 0.00 49 1014.7
20260905125227 22 0.0 0.0 0.00 0.00 0.00 49 1014.7
20260905123919 22 0.0 0.0 0.00 0.00 0.00 48 1014.6
20260905123423 22 0.0 0.0 0.00 0.00 0.00 48 1014.7
20260905122927 22 0.0 0.0 0.00 0.00 0.00 48 1014.8
20260905122426 22 0.0 0.0 0.00 0.00 0.00 48 1014.8
20260905121520 22 0.0 0.0 0.00 0.00 0.00 47 1014.8
20260905121022 22 0.0 0.0 0.00 0.00 0.00 47 1014.7
20260905120525 22 0.0 0.0 0.00 0.00 0.00 47 1014.7
20260905120024 22 0.0 0.0 0.00 0.00 0.00 47 1014.7
20260905115021 22 0.0 0.0 0.00 0.00 0.00 45 1015.1
20260905113918 23 0.0 0.0 0.00 0.00 0.00 43 1015.1
20260905112921 23 0.0 0.0 0.00 0.00 0.00 34 1015.3
20260905112426 23 0.0 0.0 0.00 0.00 0.00 25 1015.3
20260905111717 23 0.0 0.0 0.00 0.00 0.00 4 1015.2
20260905110720 23 0.0 0.0 0.00 0.00 0.00 99 1015.5
20260905110224 23 0.0 0.0 0.00 0.00 0.00 99 1015.5
20260905104921 24 0.0 0.0 0.00 0.00 0.00 99 1015.5
20260905104217 23 0.0 0.0 0.00 0.00 0.00 99 1015.5
20260905103221 23 0.0 0.0 0.00 0.00 0.00 99 1015.7
20260905102320 23 0.0 0.0 0.00 0.00 0.00 99 1015.7
20260905101824 23 0.0 0.0 0.00 0.00 0.00 99 1015.7
20260905101023 23 0.0 0.0 0.00 0.00 0.00 99 1015.8
20260905100524 23 0.0 0.0 0.00 0.00 0.00 99 1015.8
20260905100017 23 0.0 0.0 0.00 0.00 0.00 99 1015.8
20260905095317 22 0.0 0.0 0.00 0.00 0.00 99 1016.1
20260905094418 22 0.0 0.0 0.00 0.00 0.00 99 1016.1
20260905093923 21 0.0 0.0 0.00 0.00 0.00 99 1016.1
20260905093424 21 0.0 0.0 0.00 0.00 0.00 99 1016.1
20260905092926 20 0.0 0.0 0.00 0.00 0.00 99 1016.4
20260905092426 20 0.0 0.0 0.00 0.00 0.00 99 1016.4
20260905091418 20 0.0 0.0 0.00 0.00 0.00 99 1016.3
20260905090921 19 0.0 0.0 0.00 0.00 0.00 99 1016.2
20260905090424 19 0.0 0.0 0.00 0.00 0.00 99 1016.2
20260905085116 18 0.0 0.0 0.00 0.00 0.00 99 1016.1
20260905084625 18 0.0 0.0 0.00 0.00 0.00 99 1016.1
20260905084125 18 0.0 0.0 0.00 0.00 0.00 99 1016.1
20260905083220 19 0.0 0.0 0.00 0.00 0.00 99 1016.3
20260905082726 19 0.0 0.0 0.00 0.00 0.00 99 1016.3
20260905082222 18 0.0 0.0 0.00 0.00 0.00 99 1016.3
20260905081317 18 0.0 0.0 0.00 0.00 0.00 99 1015.9
20260905080622 18 0.0 0.0 0.00 0.00 0.00 99 1015.8
20260905075917 18 0.0 0.0 0.00 0.00 0.00 99 1015.9
20260905075424 17 0.0 0.0 0.00 0.00 0.00 99 1015.7
20260905074926 17 0.0 0.0 0.00 0.00 0.00 99 1015.0
20260905073820 17 0.0 0.0 0.00 0.00 0.00 99 1015.0
20260905072717 16 0.0 0.0 0.00 0.00 0.00 99 1014.9
20260905071421 16 0.0 0.0 0.00 0.00 0.00 99 1014.8
20260905070517 16 0.0 0.0 0.00 0.00 0.00 99 1014.8
20260905065417 16 0.0 0.0 0.00 0.00 0.00 99 1014.7
20260905064421 16 0.0 0.0 0.00 0.00 0.00 99 1014.6
20260905063321 15 0.0 0.0 0.00 0.00 0.00 99 1014.9
20260905062219 16 0.0 0.0 0.00 0.00 0.00 99 1014.9
20260905061723 16 0.0 0.0 0.00 0.00 0.00 99 1014.9
20260905061225 16 0.0 0.0 0.00 0.00 0.00 99 1014.9
20260905060724 16 0.0 0.0 0.00 0.00 0.00 99 1014.9
20260905055719 16 0.0 0.0 0.00 0.00 0.00 99 1014.9
20260905054721 16 0.0 0.0 0.00 0.00 0.00 99 1014.3
20260905054229 17 0.0 0.0 0.00 0.00 0.00 99 1014.3
20260905053323 17 0.0 0.0 0.00 0.00 0.00 99 1014.0
20260905052417 17 0.0 0.0 0.00 0.00 0.00 99 1014.0
20260905051925 17 0.0 0.0 0.00 0.00 0.00 99 1014.0
20260905051426 17 0.0 0.0 0.00 0.00 0.00 99 1014.0
20260905050524 17 0.0 0.0 0.00 0.00 0.00 99 1013.9
20260905050025 17 0.0 0.0 0.00 0.00 0.00 99 1013.9
20260905045316 17 0.0 0.0 0.00 0.00 0.00 99 1013.4
20260905044318 17 0.0 0.0 0.00 0.00 0.00 99 1013.4
20260905043418 16 0.0 0.0 0.00 0.00 0.00 99 1013.4
20260905042316 17 0.0 0.0 0.00 0.00 0.00 99 1013.1
20260905041526 17 0.0 0.0 0.00 0.00 0.00 99 1013.1
20260905041026 18 0.0 0.0 0.00 0.00 0.00 99 1013.1
20260905040526 18 0.0 0.0 0.00 0.00 0.00 99 1013.1
20260905040016 18 0.0 0.0 0.00 0.00 0.00 83 1013.0
20260905035020 18 0.0 0.0 0.00 0.00 0.00 6 1011.9
20260905034021 18 0.0 0.0 0.00 0.00 0.00 12 1011.9
20260905033316 18 0.0 0.0 0.00 0.00 0.00 16 1012.1
20260905032319 18 0.0 0.0 0.00 0.00 0.00 19 1012.1
20260905031219 19 0.0 0.0 0.00 0.00 0.00 36 1011.6
20260905025918 18 0.0 0.0 0.00 0.00 0.00 30 1011.5
20260905025421 18 0.0 0.0 0.00 0.00 0.00 26 1011.4
20260905024321 18 0.0 0.0 0.00 0.00 0.00 29 1011.1
20260905023220 19 0.0 0.0 0.00 0.00 0.00 30 1011.5
20260905021922 19 0.0 0.0 0.00 0.00 0.00 35 1011.5
20260905021423 19 0.0 0.0 0.00 0.00 0.00 37 1011.5
20260905020924 19 0.0 0.0 0.00 0.00 0.00 37 1010.8
20260905020216 20 0.0 0.0 0.00 0.00 0.00 36 1010.9
20260905015225 20 0.0 0.0 0.00 0.00 0.00 34 1011.3
20260905014226 20 0.0 0.0 0.00 0.00 0.00 31 1011.3
20260905013222 20 0.0 0.0 0.00 0.00 0.00 27 1011.0
20260905011916 20 0.0 0.0 0.00 0.00 0.00 15 1011.0
20260905010918 20 0.0 0.0 0.00 0.00 0.00 12 1010.2
20260905010421 20 0.0 0.0 0.00 0.00 0.00 12 1010.2
20260905005925 20 0.0 0.0 0.00 0.00 0.00 9 1010.2
20260905005424 20 0.0 0.0 0.00 0.00 0.00 3 1009.9
20260905004924 18 0.0 0.0 0.00 0.00 0.00 99 1009.1
20260905003918 18 0.0 0.0 0.00 0.00 0.00 99 1009.1
20260905002921 18 0.0 0.0 0.00 0.00 0.00 99 1008.6
20260905002425 18 0.0 0.0 0.00 0.00 0.00 99 1008.6
20260905001923 18 0.0 0.0 0.00 0.00 0.00 99 1008.6
20260905001216 18 0.0 0.0 0.00 0.00 0.00 99 1008.3
20260904235920 18 0.0 0.0 0.00 0.00 0.00 99 1008.3
20260904234825 18 0.0 0.0 0.00 0.00 0.00 99 1008.5
20260904234323 18 0.0 0.0 0.00 0.00 0.00 99 1008.5
20260904233220 18 0.0 0.0 0.00 0.00 0.00 99 1008.4
20260904232724 18 0.0 0.0 0.00 0.00 0.00 99 1008.4
20260904232016 18 0.0 0.0 0.00 0.00 0.00 99 1008.3
20260904231019 18 0.0 0.0 0.00 0.00 0.00 99 1008.5
20260904230524 18 0.0 0.0 0.00 0.00 0.00 99 1008.5
20260904225416 18 0.0 0.0 0.00 0.00 0.00 99 1008.5
20260904224322 18 0.0 0.0 0.00 0.00 0.00 99 1008.4
20260904223824 18 0.0 0.0 0.00 0.00 0.00 99 1008.4
20260904222521 18 0.0 0.0 0.00 0.00 0.00 99 1008.3
20260904222022 18 0.0 0.0 0.00 0.00 0.00 99 1008.4
20260904220722 19 0.0 0.0 0.00 0.00 0.00 99 1008.3
20260904215921 19 0.0 0.0 0.00 0.00 0.00 99 1008.3
20260904214822 19 0.0 0.0 0.00 0.00 0.00 99 1008.3
20260904213916 19 0.0 0.0 0.00 0.00 0.00 99 1008.2
20260904212918 19 0.0 0.0 0.00 0.00 0.00 99 1008.2
20260904211922 18 0.0 0.0 0.00 0.00 0.00 99 1008.1
20260904211019 19 0.0 0.0 0.00 0.00 0.00 99 1008.4
20260904210526 19 0.0 0.0 0.00 0.00 0.00 99 1008.4
20260904210022 19 0.0 0.0 0.00 0.00 0.00 99 1008.4
20260904205525 19 0.0 0.0 0.00 0.00 0.00 99 1008.3
20260904204526 19 0.0 0.0 0.00 0.00 0.00 99 1008.2
20260904203516 20 0.0 0.0 0.00 0.00 0.00 99 1008.2
20260904202519 20 0.0 0.0 0.00 0.00 0.00 99 1008.6
20260904201618 20 0.0 0.0 0.00 0.00 0.00 99 1008.6
20260904201122 20 0.0 0.0 0.00 0.00 0.00 100 1008.4
20260904200416 20 0.0 0.0 0.00 0.00 0.00 99 1008.6
20260904195421 20 0.0 0.0 0.00 0.00 0.00 1 1008.4
20260904194925 20 0.0 0.0 0.00 0.00 0.00 5 1008.4
20260904193821 20 0.0 0.0 0.00 0.00 0.00 10 1008.3
20260904193324 21 0.0 0.0 0.00 0.00 0.00 10 1008.6
20260904192221 21 0.0 0.0 0.00 0.00 0.00 15 1008.6
20260904191221 21 0.0 0.0 0.00 0.00 0.00 17 1008.3
20260904190516 21 0.0 0.0 0.00 0.00 0.00 21 1008.3
20260904185820 21 0.0 0.0 0.00 0.00 0.00 23 1008.3
20260904184721 21 0.0 0.0 0.00 0.00 0.00 26 1008.5